Погода в Оймяконе

Погода в Оймяконе : погода сейчас, прогноз погоды и архив. Всё, что Вы хотите узнать о погоде в Оймяконе!

Хотите узнать прогноз погоды в Оймяконе? Тогда Вам сюда: Погода в Оймяконе

Поиск расширенной информации на нашем сайте:

Другие новости

Новости СМИ2

Главная страница сайта

Новости сайта

02.10.2013

Напоминаем, что на нашем новом сайте вы можете получить высокодетализированные прогнозы погоды по пунктам России, СНГ и мира (включающие важные для авиации метеовеличины, такие как направление и скорость ветра, видимость, явления погоды, количество и форма облачности, нижняя и верхняя граница облачности), а также ознакомиться с разнообразными материалами по авиационной метеорологии и подборкой полезных ссылок на эту тему.

Сайт Метеоцентр.Азия посвящён разработке технологий оптимизации авиаметеорологического обслуживания, включая проектирование и перспективное создание нескольких автоматизированных авиаметеорологических систем:
- система выпуска высокодетальных прогностических карт явлений погоды для нижнего воздушного пространства по России и ближнему зарубежью;
- система верификации прогнозов TAF (выпускаемых синоптиками официальных АМСГ РФ и ближнего зарубежья) и AUTOTAF (выпускаемых сайтом Метеоцентр.Азия) - выявление ошибок, онлайн-сопоставление с фактической погодой METAR, автоматическое внесение коррективов в прогнозы при резком отклонении фактической погоды от прогноза, подсчёт оправдываемости прогнозов по элементам и в целом;
- система обработки, анализа и отображения авиаметеорологической информации для применения провайдерами метеорологической информации.

Рекомендуем: Заливка фундамента в Калуге облицовка камнем фундамента дома Калуга.

Погода в Оймяконе - сегодня

Время (UTC), дата Ветер
(°,м/с) 
Видим.   Явления Облачность Т
(°С)
Тd
(°С)
f(%) Тe
(°С)
Pmin
(гПа)
dP
(гПа)
Po
(мм)
O2
(г/м3)
Тmin Tmax R s Состояние
почвы
03 26.05.17 240 (ЮЗ) 3{10}  20000 м  осадки на расстоянии{ливн. осадки}  9/9 1000 м кучево-дожд. 
[Cb cap]
+8.5 -1.7 49 +8  997  684  267           
06 26.05.17 310 (СЗ) 7-11{11}  20000 м  в посл. час ливневой дождь  9/9 1000 м кучево-дожд. 
[Cb cap]
+8.4 -3.3 43 +6  998.1  685  268           
09 26.05.17 260 (З) 6{11}  20000 м  осадки на расстоянии  8/8 1000 м кучево-дожд. 
[Cb cap]
+7.2 +0.4 62 +5  999.4  0.9  685  269    +9.4  0.0     
12 26.05.17 280 (З) 2{11}  20000 м  {ливн. осадки}  4/3 1000 м кучево-дожд., верхняя 
[Cb cap|Ci fib]
+1.9 +1.1 94 +1  1002.7  1.4  686  274           
15 26.05.17 270 (З) 20000 м    3/3 1000 м 
[Sc]
+0.1 -3.3 78 -1  1004.5  1.1  687  277           
18 26.05.17 290 (З) 20000 м    1/1 1000 м 
[Sc]
+0 -4.1 74 -1  1005.1  0.5  688  277           
21 26.05.17 250 (З) 20000 м    1/0 верхняя 
[Ci fib]
+5 -3.7 53 +6  1003.6  0.1  688  272  -0.5    0.7    влажная 
00 27.05.17 280 (З) 20000 м    3/3 1000 м верхняя 
[Cu hum|Cc]
+9.3 -4.7 37 +9  1001.7  -0.5  687  268           
03 27.05.17 300 (СЗ) 20000 м    8/3 1000 м средняя, верхняя 
[Cu Sc|Ac cast|Cc]
+11.9 -4.1 32 +12  999.6  -1.1  687  265           
12 27.05.17 160 (Ю) 20000 м  осадки на расстоянии  8/8 1000 м кучево-дожд. 
[Cb cap]
+6.2 -1 60 +7  1001.8  0.7  687  271           
15 27.05.17 230 (ЮЗ) 20000 м  осадки на расстоянии  6/4 1000 м кучево-дожд., средняя 
[Cb cap|Ac trans]
+2.1 -2.6 71 +1  1003.6  0.3  687  275           
18 27.05.17 300 (СЗ) 20000 м    8/8 1000 м кучево-дожд. 
[Cb cap]
+1.5 -2 78 +1  1005  1.2  688  276           
21 27.05.17 300 (СЗ) 20000 м    8/4 1000 м кучево-дожд., средняя, верхняя 
[Cb cap|Ac lent|Ci fib]
+5.8 -4.4 48 +4  1004.3  0.6  688  272  +0.4        влажная 
00 28.05.17 280 (З) 20000 м    8/8 1000 м кучево-дожд. 
[Cb cap]
+8.4 -2.7 45 +7  1003.8  0.3  689  269           
03 28.05.17 040 (СВ) 20000 м  в посл. час ливневой дождь  8/8 1000 м кучево-дожд. 
[Cb cap]
+10 -1.9 43 +10  1003.5  0.2  689  268           
09 28.05.17 050 (СВ) 5{10}  20000 м  осадки на расстоянии  6/6 1000 м кучево-дожд. 
[Cb cap]
+9.3 -0.2 51 +8  1004.6  0.8  689  268    +11.7  0.0     
12 28.05.17 040 (СВ) 20000 м    1/1 1000 м 
[Sc diur, vesp]
+5.2 -0.7 66 +6  1007.6  1.6  691  273           
15 28.05.17 270 (З) 20000 м  местами туман поземный  ясно 
-1.7 -3.3 89 -3  1011.1  1.1  691  281           
18 28.05.17 050 (СВ) 20000 м    ясно 
-3.1 -4.8 88 -3  1013.4  1.5  693  283           
00 29.05.17 130 (ЮВ) 20000 м    8/1 1000 м верхняя 
[Cu hum|Ci fib]
+10.8 -1.7 42 +10  1009.1  -0.3  693  269           
03 29.05.17 070 (В) 3{10}  20000 м    9/5 1000 м верхняя 
[Cu Sc|Ci fib]
+13.5 -0.9 37 +14  1007.2  -1.1  692  266           
06 29.05.17 110 (В) 4{10}  20000 м    9/5 1000 м верхняя 
[Sc diur, vesp|Ci fib]
+14.2 -2.7 31 +14  1006.1  -0.7  692  265           
12 29.05.17 110 (В) 20000 м    10/4 1000 м верхняя 
[Sc diur, vesp|Cc]
+9.5 -2.7 42 +8  1008.7  1.1  692  270           
15 29.05.17 040 (СВ) 20000 м    10/3 1000 м средняя, верхняя 
[Sc diur, vesp|Ac trans|Cs]
+5.6 -2.1 58 +5  1010  692  273           
18 29.05.17 060 (СВ) 20000 м    10/9 1000 м верхняя 
[Sc|Ci fib]
+2.4 -0.3 82 +3  1011.4  0.4  693  276           
Время (UTC), дата Ветер
(°,м/с) 
Видим.   Явления Облачность Т
(°С)
Тd
(°С)
f(%) Тe
(°С)
Pmin
(гПа)
dP
(гПа)
Po
(мм)
O2
(г/м3)
Тmin Tmax R s Состояние
почвы

Для получения пояснительной информации подведите курсор к названию столбца.

ПОГОДА в Оймяконе - архив

Всё, что Вы хотите узнать о погоде в Оймяконе - удобно и подробно!

Выберите нужную дату (начиная с 1 января 2015* года) и нажмите кнопку "Найти".
Будут отображены архивные сводки погоды по пункту Оймякон, начиная с указанной даты.


Отображать данные в формате CSV (для использования в таблицах Excel)


Внимание! Наш архив погоды предназначен исключительно для личного некоммерческого использования в познавательных целях. Если Вам необходимы официальные справки о состоянии погоды (для производственных, юридических, коммерческих и т.п. целей), обращайтесь в органы Росгидромета.

*Примечание: данная дата относится к архиву по метеостанциям СССР (Россия, СНГ, Балтия).
Архив по метеостанциям Зарубежной Европы и Азии (кроме Китая) хранится 10 дней, по другим регионам земного шара (Китай, Африка, Америка, Австралия, Океания) - 1 день.

Оймякон - район местоположения метеостанции


Название, широта, долгота, высота метеостанции:
Оймякон 63.2°ш. 143.2°д. 741 м над ур. моря [Российская Федерация]

Дополнительная информация

В oтличие oт бoльшинства пoгoдных сайтoв мы публикуем пoдрoбную метеoинфoрмацию в детальнoм прoфессиoнальнoм фoрмате.

Характеристики температуры и влажнoсти вoздуха измеряются на высoте 2 м в тени вдали oт зданий и деревьев.
Скoрoсть ветра измеряется на высoте 10 м (на урoвне рoста челoвека скoрoсть ветра ниже в 1.5-2 раза). Если метеoстанция нахoдится в гoрoде или в лесу, тo скoрoсть ветра занижена на 2-4 м/с пo сравнению с oткрытым местoм. Скoрoсть ветра над акватoриями крупных рек и oзёр, а также на вершинах хoлмoв на 2-5 м/с выше, чем в oбычных услoвиях.
Атмoсфернoе давление в разных тoчках местнoсти мoжет значительнo oтличаться oт давления на метеoстанции, в зависимoсти oт услoвий рельефа (при пoдъёме на 10 м давление пoнижается примернo на 1 мм рт.ст.).